Location: STAR School
(35.3054°N, 111.2976°W)
Time: 08:25:19
(UTC-07:00)

A-11 Canister half - All Passes

Search period start: 19 May 2019 00:00
Search period end: 29 May 2019 00:00
Orbit: 1517 x 1683 km, 47.2° (Epoch: 19 May)

Date Brightness Start Highest point End Pass type
(mag) Time Alt. Az. Time Alt. Az. Time Alt. Az.
19 May - 01:48:18 10° NW 01:57:37 71° NNE 02:07:12 10° ESE visible
19 May - 03:53:37 10° WNW 04:02:12 41° SW 04:11:03 10° SSE visible
19 May - 17:07:03 10° SSE 17:12:46 18° SE 17:18:23 10° E daylight
19 May - 19:07:11 10° SW 19:16:28 71° SE 19:25:39 10° ENE daylight
19 May - 21:12:48 10° W 21:21:45 50° NNW 21:30:44 10° NE visible
19 May - 23:19:51 10° WNW 23:28:25 40° N 23:37:07 10° ENE visible
20 May - 01:25:24 10° NW 01:34:41 68° NNE 01:44:12 10° ESE visible
20 May - 03:30:38 10° WNW 03:39:20 44° SW 03:48:18 10° SSE visible
20 May - 16:44:45 10° SSE 16:49:57 16° SE 16:55:03 10° E daylight
20 May - 18:44:20 10° SW 18:53:35 67° SE 19:02:43 10° ENE daylight
20 May - 20:49:47 10° W 20:58:47 52° NNW 21:07:47 10° NE visible
20 May - 22:56:51 10° WNW 23:05:24 40° N 23:14:04 10° ENE visible
21 May - 01:02:30 10° NW 01:11:44 65° NNE 01:21:11 10° ESE visible
21 May - 03:07:40 10° WNW 03:16:28 47° SW 03:25:32 10° SSE visible
21 May - 16:22:33 10° SSE 16:27:08 15° ESE 16:31:38 10° E daylight
21 May - 18:21:29 10° SW 18:30:43 63° SE 18:39:47 10° ENE daylight
21 May - 20:26:45 10° W 20:35:49 54° NNW 20:44:51 10° NE visible
21 May - 22:33:51 10° WNW 22:42:24 39° N 22:51:01 10° ENE visible
22 May - 00:39:36 10° NW 00:48:47 62° NNE 00:58:11 10° ESE visible
22 May - 02:44:43 10° WNW 02:53:36 50° SW 03:02:46 10° SSE visible
22 May - 16:00:32 10° SSE 16:04:19 13° ESE 16:08:03 10° E daylight
22 May - 17:58:41 10° SSW 18:07:51 59° SE 18:16:51 10° ENE daylight
22 May - 20:03:44 10° W 20:12:51 56° NNW 20:21:56 10° NE visible
22 May - 22:10:51 10° WNW 22:19:23 39° N 22:27:58 10° ENE visible
23 May - 00:16:41 10° NW 00:25:50 60° NNE 00:35:09 10° ESE visible
23 May - 02:21:46 10° WNW 02:30:44 54° SW 02:39:58 10° SSE visible
23 May - 04:31:58 10° WSW 04:34:14 11° WSW 04:36:31 10° SW visible
23 May - 15:38:47 10° SE 15:41:30 11° ESE 15:44:12 10° ESE daylight
23 May - 17:35:52 10° SSW 17:44:59 55° SE 17:53:55 10° ENE daylight
23 May - 19:40:43 10° WSW 19:49:54 58° NNW 19:59:00 10° NE visible
23 May - 21:47:50 10° WNW 21:56:22 39° N 22:04:57 10° ENE visible
23 May - 23:53:47 10° NW 00:02:53 57° NNE 00:12:08 10° ESE visible
24 May - 01:58:49 10° WNW 02:07:52 57° SW 02:17:09 10° SSE visible
24 May - 04:07:55 10° W 04:11:25 12° WSW 04:14:56 10° SW visible
24 May - 15:18:27 10° ESE 15:18:41 10° ESE 15:18:55 10° ESE daylight
24 May - 17:13:04 10° SSW 17:22:07 52° SE 17:30:59 10° ENE daylight
24 May - 19:17:42 10° WSW 19:26:57 61° NNW 19:36:06 10° NE daylight
24 May - 21:24:48 10° WNW 21:33:21 39° N 21:41:56 10° ENE visible
24 May - 23:30:52 10° NW 23:39:55 55° NNE 23:49:06 10° E visible
25 May - 01:35:54 10° WNW 01:44:59 61° SW 01:54:19 10° SE visible
25 May - 03:44:17 10° W 03:48:36 14° WSW 03:52:59 10° SSW visible
25 May - 16:50:17 10° SSW 16:59:15 48° SE 17:08:01 10° ENE daylight
25 May - 18:54:42 10° WSW 19:03:59 63° NNW 19:13:11 10° NE daylight
25 May - 21:01:47 10° WNW 21:10:21 40° N 21:18:55 10° ENE visible
25 May - 23:07:56 10° NW 23:16:57 53° NNE 23:26:04 10° E visible
26 May - 01:12:58 10° WNW 01:22:06 65° SW 01:31:28 10° SE visible
26 May - 03:20:48 10° W 03:25:46 16° SW 03:30:49 10° SSW visible
26 May - 16:27:31 10° SSW 16:36:24 45° SE 16:45:04 10° ENE daylight
26 May - 18:31:41 10° WSW 18:41:03 66° NNW 18:50:16 10° NE daylight
26 May - 20:38:44 10° WNW 20:47:20 40° N 20:55:55 10° ENE visible
26 May - 22:45:01 10° NW 22:53:58 51° NNE 23:03:02 10° E visible
27 May - 00:50:03 10° WNW 00:59:13 69° SW 01:08:37 10° SE visible
27 May - 02:57:27 10° W 03:02:57 17° SW 03:08:33 10° SSW visible
27 May - 16:04:46 10° SSW 16:13:32 42° SE 16:22:05 10° ENE daylight
27 May - 18:08:42 10° WSW 18:18:07 69° NNW 18:27:22 10° NE daylight
27 May - 20:15:42 10° WNW 20:24:19 40° N 20:32:54 10° ENE visible
27 May - 22:22:04 10° NW 22:31:00 50° NNE 22:39:59 10° E visible
28 May - 00:27:07 10° WNW 00:36:20 73° SW 00:45:45 10° SE visible
28 May - 02:34:10 10° W 02:40:07 19° SW 02:46:12 10° SSW visible
28 May - 15:42:03 10° SSW 15:50:41 39° SE 15:59:06 10° ENE daylight
28 May - 17:45:43 10° WSW 17:55:11 72° NNW 18:04:27 10° NE daylight
28 May - 19:52:39 10° WNW 20:01:19 41° N 20:09:55 10° ENE visible
28 May - 21:59:08 10° NW 22:08:01 48° NNE 22:16:57 10° E visible
